Location: Vernon
(50.2670°N, 119.2670°W)
Time: 04:44:31
(UTC-07:00)

N. Korean satellite - Visible Passes

Search period start: 16 October 2019 00:00
Search period end: 26 October 2019 00:00
Orbit: 455 x 508 km, 97.2° (Epoch: 15 October)

Date Brightness Start Highest point End Pass type
(mag) Time Alt. Az. Time Alt. Az. Time Alt. Az.
16 Oct 10.2 05:48:50 10° ENE 05:50:28 13° E 05:52:07 10° ESE visible
17 Oct 10.2 19:10:46 10° WSW 19:12:24 13° W 19:14:04 10° WNW visible
18 Oct 8.5 06:30:15 10° NNE 06:33:35 35° E 06:36:57 10° SSE visible
18 Oct 9.3 18:44:04 10° SSW 18:46:53 24° W 18:49:45 10° NW visible
19 Oct 9.7 06:05:28 10° NE 06:08:09 19° E 06:10:50 10° SE visible
20 Oct 10.5 05:41:45 10° ENE 05:42:36 11° E 05:43:28 10° ESE visible
21 Oct 7.4 06:47:33 10° NNE 06:51:08 57° E 06:54:45 10° S visible
21 Oct 10.0 19:02:20 10° SW 19:04:30 16° W 19:06:40 10° NW visible
22 Oct 8.9 06:22:31 10° NNE 06:25:45 30° E 06:29:00 10° SSE visible
22 Oct 8.9 18:35:58 10° SSW 18:39:00 29° W 18:42:05 10° NNW visible
23 Oct 10.0 05:57:52 10° NE 06:00:16 17° E 06:02:40 10° SE visible
24 Oct 10.6 19:21:50 10° W 19:22:08 10° W 19:22:27 10° W visible
25 Oct 7.9 06:39:44 10° NNE 06:43:17 47° E 06:46:51 10° S visible
25 Oct 9.7 18:54:02 10° SW 18:56:33 19° W 18:59:08 10° NW visible
